TimePST,TemperatureF,Dew PointF,Humidity,Sea Level PressureIn,VisibilityMPH,Wind Direction,Wind SpeedMPH,Gust SpeedMPH,PrecipitationIn,Events,Conditions,WindDirDegrees,DateUTC
12:53 AM,37.0,37.0,100,30.48,0.5,Calm,Calm,-,N/A,Fog,Fog,0,2013-12-15 08:53:00
1:17 AM,36.0,36.0,100,30.47,0.2,South,3.5,-,N/A,Fog,Fog,180,2013-12-15 09:17:00
1:43 AM,37.0,37.0,100,30.46,0.5,SSE,3.5,-,N/A,Fog,Fog,150,2013-12-15 09:43:00
1:53 AM,37.0,37.0,100,30.48,0.5,Calm,Calm,-,N/A,Fog,Fog,0,2013-12-15 09:53:00
2:45 AM,36.0,36.0,100,30.46,1.0,Calm,Calm,-,N/A,,Mist,0,2013-12-15 10:45:00
2:53 AM,36.0,36.0,100,30.48,0.8,Calm,Calm,-,N/A,,Mist,0,2013-12-15 10:53:00
3:06 AM,37.0,37.0,100,30.46,1.5,Calm,Calm,-,N/A,,Overcast,0,2013-12-15 11:06:00
3:53 AM,37.0,37.0,100,30.47,1.2,Calm,Calm,-,N/A,,Overcast,0,2013-12-15 11:53:00
4:18 AM,37.0,37.0,100,30.46,2.5,Calm,Calm,-,N/A,,Overcast,0,2013-12-15 12:18:00
4:28 AM,37.0,36.0,96,30.46,1.2,SE,3.5,-,0.00,Rain,Light Rain,130,2013-12-15 12:28:00
4:46 AM,36.0,36.0,100,30.46,3.0,ESE,3.5,-,0.00,,Overcast,110,2013-12-15 12:46:00
4:53 AM,36.0,36.0,100,30.47,6.0,ESE,3.5,-,0.00,,Overcast,120,2013-12-15 12:53:00
5:53 AM,36.0,36.0,100,30.46,3.0,SE,3.5,-,N/A,,Overcast,140,2013-12-15 13:53:00
6:35 AM,37.0,36.0,96,30.45,5.0,Calm,Calm,-,N/A,,Overcast,0,2013-12-15 14:35:00
6:42 AM,37.0,37.0,100,30.45,6.0,Calm,Calm,-,N/A,,Overcast,0,2013-12-15 14:42:00
6:53 AM,37.0,37.0,100,30.46,6.0,Calm,Calm,-,N/A,,Overcast,0,2013-12-15 14:53:00
7:00 AM,37.0,36.0,96,30.46,6.0,Calm,Calm,-,N/A,,Overcast,0,2013-12-15 15:00:00
7:26 AM,37.0,37.0,100,30.44,6.0,Calm,Calm,-,N/A,,Overcast,0,2013-12-15 15:26:00
7:53 AM,37.0,37.0,100,30.46,6.0,Calm,Calm,-,N/A,,Overcast,0,2013-12-15 15:53:00
8:13 AM,37.9,37.0,97,30.45,6.0,Calm,Calm,-,N/A,,Overcast,0,2013-12-15 16:13:00
8:21 AM,37.9,37.0,97,30.46,6.0,Calm,Calm,-,N/A,,Overcast,0,2013-12-15 16:21:00
8:53 AM,37.9,37.9,100,30.47,6.0,Calm,Calm,-,N/A,,Overcast,0,2013-12-15 16:53:00
9:53 AM,39.9,39.0,97,30.49,5.0,SSE,3.5,-,N/A,,Overcast,150,2013-12-15 17:53:00
10:30 AM,41.0,39.0,93,30.49,6.0,Calm,Calm,-,N/A,,Overcast,0,2013-12-15 18:30:00
10:53 AM,39.9,39.0,97,30.48,6.0,ESE,3.5,-,N/A,,Overcast,120,2013-12-15 18:53:00
11:53 AM,41.0,39.9,96,30.47,9.0,Calm,Calm,-,N/A,,Overcast,0,2013-12-15 19:53:00
12:16 PM,42.1,39.9,92,30.46,9.0,Calm,Calm,-,N/A,,Overcast,0,2013-12-15 20:16:00
12:30 PM,43.0,39.9,89,30.46,9.0,Calm,Calm,-,N/A,,Overcast,0,2013-12-15 20:30:00
12:53 PM,43.0,41.0,93,30.47,8.0,Calm,Calm,-,N/A,,Overcast,0,2013-12-15 20:53:00
1:53 PM,45.0,42.1,90,30.46,10.0,SSE,3.5,-,N/A,,Overcast,150,2013-12-15 21:53:00
2:04 PM,45.0,42.1,90,30.45,10.0,SSE,4.6,-,N/A,,Overcast,160,2013-12-15 22:04:00
2:32 PM,45.0,42.1,90,30.45,10.0,SSE,3.5,-,N/A,,Mostly Cloudy,160,2013-12-15 22:32:00
2:53 PM,45.0,42.1,90,30.46,10.0,Calm,Calm,-,N/A,,Mostly Cloudy,0,2013-12-15 22:53:00
3:27 PM,45.0,42.1,90,30.45,10.0,Calm,Calm,-,N/A,,Scattered Clouds,0,2013-12-15 23:27:00
3:53 PM,44.1,42.1,93,30.45,10.0,Calm,Calm,-,N/A,,Clear,0,2013-12-15 23:53:00
4:38 PM,42.1,41.0,96,30.45,1.8,Calm,Calm,-,N/A,,Clear,0,2013-12-16 00:38:00
4:48 PM,42.8,41.0,93,30.45,3.0,Calm,Calm,-,N/A,,Clear,0,2013-12-16 00:48:00
4:53 PM,41.0,39.9,96,30.46,4.0,Calm,Calm,-,N/A,,Clear,0,2013-12-16 00:53:00
5:01 PM,39.9,39.0,97,30.45,1.8,Calm,Calm,-,N/A,,Clear,0,2013-12-16 01:01:00
5:15 PM,39.0,39.0,100,30.46,0.2,WNW,3.5,-,N/A,Fog,Fog,300,2013-12-16 01:15:00
5:23 PM,39.9,39.0,97,30.46,0.5,Calm,Calm,-,N/A,Fog,Fog,0,2013-12-16 01:23:00
5:53 PM,39.0,37.9,96,30.46,0.2,Calm,Calm,-,N/A,Fog,Fog,0,2013-12-16 01:53:00
6:00 PM,39.0,37.9,96,30.46,0.2,Calm,Calm,-,N/A,Fog,Fog,0,2013-12-16 02:00:00
6:11 PM,39.0,37.9,96,30.46,1.0,Calm,Calm,-,N/A,,Mostly Cloudy,0,2013-12-16 02:11:00
6:19 PM,37.9,37.9,100,30.45,0.2,Calm,Calm,-,N/A,Fog,Fog,0,2013-12-16 02:19:00
6:27 PM,39.0,37.9,96,30.45,0.2,Calm,Calm,-,N/A,Fog,Fog,0,2013-12-16 02:27:00
6:53 PM,37.9,37.9,100,30.47,0.2,Calm,Calm,-,N/A,Fog,Fog,0,2013-12-16 02:53:00
7:11 PM,39.0,39.0,100,30.46,0.5,Calm,Calm,-,N/A,Fog,Fog,0,2013-12-16 03:11:00
7:24 PM,39.0,39.0,100,30.46,1.8,ESE,3.5,-,N/A,,Overcast,110,2013-12-16 03:24:00
7:35 PM,39.9,39.9,100,30.46,2.0,Calm,Calm,-,N/A,,Overcast,0,2013-12-16 03:35:00
7:51 PM,39.2,39.2,100,30.46,2.5,Calm,Calm,-,N/A,,Overcast,0,2013-12-16 03:51:00
7:53 PM,39.9,39.0,97,30.47,2.5,Calm,Calm,-,N/A,,Overcast,0,2013-12-16 03:53:00
8:14 PM,39.0,39.0,100,30.47,1.2,Calm,Calm,-,N/A,,Overcast,0,2013-12-16 04:14:00
8:28 PM,39.9,39.9,100,30.47,0.8,Calm,Calm,-,N/A,,Mist,0,2013-12-16 04:28:00
8:53 PM,39.0,39.0,100,30.48,0.5,Calm,Calm,-,N/A,Fog,Fog,0,2013-12-16 04:53:00
9:53 PM,39.9,39.9,100,30.49,0.5,Calm,Calm,-,N/A,Fog,Fog,0,2013-12-16 05:53:00
10:53 PM,39.0,39.0,100,30.51,0.2,Calm,Calm,-,N/A,Fog,Fog,0,2013-12-16 06:53:00
11:53 PM,39.9,39.9,100,30.50,0.2,Calm,Calm,-,N/A,Fog,Fog,0,2013-12-16 07:53:00